Regional Weather Roundup
Issued by NWS

Home | Current Version | Previous Version | Text Only | Print | Product List | Glossary On
Versions: 1 2 3 4 5 6 7 8 9 10 11 12 13 14 15 16 17 18 19 20 21 22 23 24 25 26 27 28 29 30 31 32 33 34 35 36 37 38 39 40 41 42 43 44 45 46 47 48 49 50
000
ASUS43 KDTX 270210
RWRMI
MICHIGAN HOURLY REGIONAL WEATHER ROUNDUP
NATIONAL WEATHER SERVICE DETROIT/PONTIAC MI
1000 PM EDT TUE MAY 26 2015

NOTE: "FAIR" INDICATES FEW OR NO CLOUDS BELOW 12,000 FEET WITH NO
SIGNIFICANT WEATHER AND/OR OBSTRUCTION TO VISIBILITY.

MIZ047>049-052>055-059>063-066>070-074>076-081>083-270300-
SOUTHEAST LOWER MICHIGAN

CITY           SKY/WX    TMP DP  RH WIND       PRES   REMARKS
ADRIAN         PTCLDY    69  66  90 SW10      29.91R
ALMA           MOCLDY    67  64  87 S6        29.83R
ANN ARBOR      CLOUDY    69  66  90 SW8       29.91R
BAD AXE        MIX PCPN  69  65  87 S12G17    29.85R
CARO           CLOUDY    68  64  89 S6        29.84R
DETROIT        CLOUDY    70  66  87 S9        29.92R
FLINT          CLOUDY    73  60  63 S12       29.86S
GROSSE ILE     CLOUDY    66  63  88 S10       29.91R
HILLSDALE      MOCLDY    70  69  95 S7        29.90R
HOWELL         CLOUDY    69  64  85 S9        29.88R

CITY           SKY/WX    TMP DP  RH WIND       PRES   REMARKS
JACKSON        PTCLDY    67  65  93 S8        29.89R
LAMBERTVILLE   MOCLDY    70  64  83 S7        29.92R
LANSING        PTCLDY    66  61  84 S8        29.86R
LAPEER         RAIN      70  66  89 SW7       29.89R
MASON          MOCLDY    65  61  85 S6        29.87R
MT. CLEMENS    CLOUDY    68  66  93 S14       29.89R
PONTIAC        CLOUDY    69  67  93 S8        29.90R
PORT HOPE        N/A    N/A N/A N/A VRB6      29.82R
PORT HURON     CLOUDY    68  66  94 S12       29.91R
TRI CITIES     CLOUDY    71  65  81 S10       29.83R
MIDLAND        FAIR      69  65  87 S6        29.81R
TROY           CLOUDY    70  68  93 SW8       29.93R
SAGINAW HB     CLOUDY    70  61  73 S14       29.83R
$$
MIZ043>046-050>051-056>058-064>065-071>073-077>080-270300-
SOUTHWEST LOWER MICHIGAN

CITY           SKY/WX    TMP DP  RH WIND       PRES   REMARKS
BATTLE CREEK   MOCLDY    70  62  76 SW15      29.87R
BENTON HARBOR  PTCLDY    68  59  73 SW15G22   29.84R
BIG RAPIDS     CLOUDY    66  62  87 S7        29.77S
COLDWATER      CLOUDY    69  66  89 S7        29.88R
FREMONT        MOCLDY    67  62  84 SW15      29.77R
HOLLAND        PTCLDY    68  59  73 SW14G22   29.82R
GRAND RAPIDS   MOCLDY    67  63  87 S9        29.81S
IONIA          CLOUDY    68  62  79 S9        29.82R
KALAMAZOO      MOCLDY    71  60  68 SW14G22   29.85R
LUDINGTON      MOCLDY    68  63  83 S15       29.73S
MARSHALL       CLOUDY    69  64  83 SW7G17    29.87R
MOUNT PLEASANT CLOUDY    67  62  83 S8        29.80S
MUSKEGON       MOCLDY    65  58  78 S21G31    29.78R
SOUTH HAVEN    PTCLDY    69  57  65 SW14G23   29.83R
$$
MIZ016>042-270300-
NORTHERN LOWER MICHIGAN

CITY           SKY/WX    TMP DP  RH WIND       PRES   REMARKS
ALPENA         CLOUDY    66  65  96 S8        29.77R FOG
BEAVER ISLAND  LGT RAIN  60  59  97 SE3       29.71F
BELLAIRE       MOCLDY    68  65  90 CALM      29.73R
CADILLAC       PTCLDY    65  62  89 S6        29.77R
CHARLEVOIX     MOCLDY    65  65 100 SE3       29.74S FOG
FRANKFORT      MOCLDY    69  61  76 S7        29.71S
GAYLORD        CLOUDY    67  67 100 S10       29.75S
GRAYLING       CLOUDY    66  64  94 SE3       29.77S
HARBOR SPRINGS CLOUDY    64  64  97 E5        29.72F
HOUGHTON LAKE  CLOUDY    67  63  87 S8        29.78S
MANISTEE       CLEAR     66  59  77 S7        29.73S
OSCODA         CLOUDY    67  66  97 S10       29.79F
PELLSTON       LGT RAIN  65  64  97 SE5       29.73F FOG
ROGERS CITY    CLOUDY    67  66  95 SE13G22   29.74F FOG
TRAVERSE CITY  MOCLDY    68  64  87 CALM      29.70F
$$
MIZ007>008-015-270300-
EASTERN UPPER MICHIGAN

CITY           SKY/WX    TMP DP  RH WIND       PRES   REMARKS
KINROSS        CLOUDY    63  61  94 CALM      29.74F
MACKINAC ISLAN DRIZZLE   64  63  94 E6        29.73F
NEWBERRY       RAIN      64  63  99 N6        29.72F
S. S. MARIE    LGT RAIN  63  61  93 SE8       29.73F
MUNISING         N/A     45  43  93 NE9       29.71F
$$
MIZ004>006-011>014-085-270300-
CENTRAL UPPER MICHIGAN

CITY           SKY/WX    TMP DP  RH WIND       PRES   REMARKS
MANISTIQUE     CLOUDY    59  58  97 E3        29.69F FOG
ESCANABA       CLOUDY    57  55  94 E7        29.67F
MENOMINEE      CLOUDY    55  54  94 SE9       29.63F VSB 1/2
SAWYER-GWINN   LGT RAIN  50  48  93 NE15G21   29.70F
$$
MIZ001>003-009>011-084-270300-
WESTERN UPPER MICHIGAN

CITY           SKY/WX    TMP DP  RH WIND       PRES   REMARKS
IRON MOUNTAIN  HVY RAIN  61  60  97 CALM      29.66S FOG
HOUGHTON       LGT RAIN  51  50  96 E6        29.72F VSB 1
COPPER HARBOR    N/A     44  42  93 CALM      29.75S
IRONWOOD       CLOUDY    50  48  93 N8        29.72R
$$

ABBREVIATIONS USED IN REMARKS
   TC - TEMPERATURE IN CELSIUS
  WCI - WIND CHILL INDEX
   HX - HEAT INDEX
  VSB - VISIBILITY




USA.gov is the U.S. government's official web portal to all federal, state and local government web resources and services.